Time,TemperatureF,DewpointF,PressureIn,WindDirection,WindDirectionDegrees,WindSpeedMPH,WindSpeedGustMPH,Humidity,HourlyPrecipIn,Conditions,Clouds,dailyrainin,SoftwareType,DateUTC
2013-03-05 00:00:00,45.7,41.7,30.06,North,8,0.0,2.0,86,0.00,,,0.00,meteohub,2013-03-05 08:00:00,
2013-03-05 00:05:00,45.7,41.7,30.06,WNW,294,0.0,1.0,86,0.00,,,0.00,meteohub,2013-03-05 08:05:00,
2013-03-05 00:10:00,45.5,41.9,30.06,North,4,1.0,1.0,87,0.00,,,0.00,meteohub,2013-03-05 08:10:00,
2013-03-05 00:15:00,45.3,41.7,30.06,North,353,0.0,2.0,87,0.00,,,0.00,meteohub,2013-03-05 08:15:00,
2013-03-05 00:21:00,45.1,41.5,30.06,North,352,0.0,2.0,87,0.00,,,0.00,meteohub,2013-03-05 08:21:00,
2013-03-05 00:26:00,44.8,41.2,30.06,North,352,0.0,2.0,87,0.00,,,0.00,meteohub,2013-03-05 08:26:00,
2013-03-05 00:31:00,44.8,41.4,30.06,SW,229,0.0,1.0,88,0.00,,,0.00,meteohub,2013-03-05 08:31:00,
2013-03-05 00:36:00,44.4,41.2,30.06,SW,229,0.0,1.0,88,0.00,,,0.00,meteohub,2013-03-05 08:36:00,
2013-03-05 00:41:00,44.1,40.8,30.06,SW,229,0.0,1.0,88,0.00,,,0.00,meteohub,2013-03-05 08:41:00,
2013-03-05 00:46:00,43.9,40.8,30.06,SW,229,0.0,1.0,89,0.00,,,0.00,meteohub,2013-03-05 08:46:00,
2013-03-05 00:51:00,43.5,40.5,30.06,SW,229,0.0,1.0,89,0.00,,,0.00,meteohub,2013-03-05 08:51:00,
2013-03-05 00:56:00,43.3,40.6,30.06,SW,229,0.0,1.0,90,0.00,,,0.00,meteohub,2013-03-05 08:56:00,
2013-03-05 01:01:00,43.2,40.5,30.06,SW,229,0.0,1.0,90,0.00,,,0.00,meteohub,2013-03-05 09:01:00,
2013-03-05 01:07:00,43.2,40.6,30.06,WSW,252,0.0,1.0,91,0.00,,,0.00,meteohub,2013-03-05 09:07:00,
2013-03-05 01:12:00,43.2,40.6,30.06,WSW,252,1.0,1.0,91,0.00,,,0.00,meteohub,2013-03-05 09:12:00,
2013-03-05 01:17:00,43.2,40.6,30.06,WSW,253,0.0,1.0,91,0.00,,,0.00,meteohub,2013-03-05 09:17:00,
2013-03-05 01:22:00,43.2,40.6,30.06,WSW,252,0.0,1.0,91,0.00,,,0.00,meteohub,2013-03-05 09:22:00,
2013-03-05 01:27:00,43.3,41.2,30.07,WSW,253,0.0,1.0,92,0.00,,,0.00,meteohub,2013-03-05 09:27:00,
2013-03-05 01:32:00,43.3,40.8,30.07,WSW,253,0.0,1.0,91,0.00,,,0.00,meteohub,2013-03-05 09:32:00,
2013-03-05 01:37:00,43.5,41.0,30.07,WSW,253,0.0,1.0,91,0.00,,,0.00,meteohub,2013-03-05 09:37:00,
2013-03-05 01:42:00,43.7,41.2,30.07,North,11,0.0,1.0,91,0.00,,,0.00,meteohub,2013-03-05 09:42:00,
2013-03-05 01:47:00,44.2,41.7,30.06,NNW,346,1.0,1.0,91,0.00,,,0.00,meteohub,2013-03-05 09:47:00,
2013-03-05 01:52:00,44.8,42.1,30.07,North,352,3.0,3.0,90,0.00,,,0.00,meteohub,2013-03-05 09:52:00,
2013-03-05 01:57:00,45.1,42.1,30.07,North,0,1.0,4.0,89,0.00,,,0.00,meteohub,2013-03-05 09:57:00,
2013-03-05 02:02:00,45.7,42.3,30.07,North,356,3.0,4.0,88,0.00,,,0.00,meteohub,2013-03-05 10:02:00,
2013-03-05 02:07:00,46.0,42.4,30.07,NW,325,2.0,5.0,87,0.00,,,0.00,meteohub,2013-03-05 10:07:00,
2013-03-05 02:12:00,46.2,41.9,30.07,North,11,0.0,5.0,85,0.00,,,0.00,meteohub,2013-03-05 10:12:00,
2013-03-05 02:17:00,46.6,42.3,30.06,North,9,3.0,9.0,85,0.00,,,0.00,meteohub,2013-03-05 10:17:00,
2013-03-05 02:22:00,46.6,42.1,30.06,NNW,332,3.0,9.0,84,0.00,,,0.00,meteohub,2013-03-05 10:22:00,
2013-03-05 02:27:00,46.6,42.1,30.06,North,359,1.0,6.0,84,0.00,,,0.00,meteohub,2013-03-05 10:27:00,
2013-03-05 02:33:00,46.4,41.9,30.06,NE,37,1.0,7.0,84,0.00,,,0.00,meteohub,2013-03-05 10:33:00,
2013-03-05 02:38:00,46.4,41.9,30.06,North,11,2.0,7.0,84,0.00,,,0.00,meteohub,2013-03-05 10:38:00,
2013-03-05 02:43:00,46.6,42.1,30.06,North,356,3.0,4.0,84,0.00,,,0.00,meteohub,2013-03-05 10:43:00,
2013-03-05 02:48:00,46.6,41.7,30.06,NNW,334,2.0,6.0,83,0.00,,,0.00,meteohub,2013-03-05 10:48:00,
2013-03-05 02:53:00,46.6,41.7,30.06,North,4,4.0,6.0,83,0.00,,,0.00,meteohub,2013-03-05 10:53:00,
2013-03-05 02:58:00,46.8,41.9,30.06,NNE,15,4.0,8.0,83,0.00,,,0.00,meteohub,2013-03-05 10:58:00,
2013-03-05 03:03:00,46.6,41.7,30.06,NNE,22,3.0,8.0,83,0.00,,,0.00,meteohub,2013-03-05 11:03:00,
2013-03-05 03:08:00,46.6,41.7,30.05,North,349,1.0,8.0,83,0.00,,,0.00,meteohub,2013-03-05 11:08:00,
2013-03-05 03:14:00,46.6,42.1,30.05,SW,218,1.0,6.0,84,0.00,,,0.00,meteohub,2013-03-05 11:14:00,
2013-03-05 03:19:00,46.4,41.5,30.05,NNE,19,3.0,3.0,83,0.00,,,0.00,meteohub,2013-03-05 11:19:00,
2013-03-05 03:24:00,46.2,41.4,30.05,North,349,0.0,3.0,83,0.00,,,0.00,meteohub,2013-03-05 11:24:00,
2013-03-05 03:29:00,46.0,41.2,30.05,NNE,27,0.0,3.0,83,0.00,,,0.00,meteohub,2013-03-05 11:29:00,
2013-03-05 03:34:00,45.9,41.0,30.05,North,9,0.0,3.0,83,0.00,,,0.00,meteohub,2013-03-05 11:34:00,
2013-03-05 03:39:00,45.7,41.2,30.05,North,0,0.0,2.0,84,0.00,,,0.00,meteohub,2013-03-05 11:39:00,
2013-03-05 03:44:00,45.5,41.0,30.05,SSW,211,0.0,2.0,84,0.00,,,0.00,meteohub,2013-03-05 11:44:00,
2013-03-05 03:49:00,45.3,41.0,30.05,SSW,211,0.0,1.0,85,0.00,,,0.00,meteohub,2013-03-05 11:49:00,
2013-03-05 03:54:00,45.3,41.0,30.06,North,358,2.0,2.0,85,0.00,,,0.00,meteohub,2013-03-05 11:54:00,
2013-03-05 03:59:00,45.3,41.0,30.06,WSW,252,0.0,2.0,85,0.00,,,0.00,meteohub,2013-03-05 11:59:00,
2013-03-05 04:05:00,45.3,41.0,30.06,NNE,27,0.0,3.0,85,0.00,,,0.00,meteohub,2013-03-05 12:05:00,
2013-03-05 04:10:00,45.1,40.8,30.06,SSE,153,0.0,1.0,85,0.00,,,0.00,meteohub,2013-03-05 12:10:00,
2013-03-05 04:15:00,45.1,40.8,30.06,SSW,201,0.0,1.0,85,0.00,,,0.00,meteohub,2013-03-05 12:15:00,
2013-03-05 04:20:00,45.0,40.6,30.06,NW,307,0.0,1.0,85,0.00,,,0.00,meteohub,2013-03-05 12:20:00,
2013-03-05 04:25:00,45.1,40.8,30.06,North,5,1.0,2.0,85,0.00,,,0.00,meteohub,2013-03-05 12:25:00,
2013-03-05 04:30:00,45.0,40.6,30.06,SSE,153,1.0,2.0,85,0.00,,,0.00,meteohub,2013-03-05 12:30:00,
2013-03-05 04:35:00,45.0,41.0,30.06,NNW,346,0.0,2.0,86,0.00,,,0.00,meteohub,2013-03-05 12:35:00,
2013-03-05 04:40:00,45.1,40.8,30.06,North,5,1.0,3.0,85,0.00,,,0.00,meteohub,2013-03-05 12:40:00,
2013-03-05 04:46:00,45.1,40.8,30.06,SSW,205,0.0,3.0,85,0.00,,,0.00,meteohub,2013-03-05 12:46:00,
2013-03-05 04:51:00,45.1,40.8,30.06,WSW,243,0.0,3.0,85,0.00,,,0.00,meteohub,2013-03-05 12:51:00,
2013-03-05 04:56:00,45.1,40.8,30.06,WSW,243,0.0,2.0,85,0.00,,,0.00,meteohub,2013-03-05 12:56:00,
2013-03-05 05:01:00,45.1,40.8,30.06,WSW,243,0.0,1.0,85,0.00,,,0.00,meteohub,2013-03-05 13:01:00,
2013-03-05 05:06:00,45.1,41.2,30.06,WSW,243,0.0,1.0,86,0.00,,,0.00,meteohub,2013-03-05 13:06:00,
2013-03-05 05:11:00,45.1,41.2,30.06,NNW,345,0.0,1.0,86,0.00,,,0.00,meteohub,2013-03-05 13:11:00,
2013-03-05 05:16:00,45.1,40.8,30.06,NNW,345,0.0,2.0,85,0.00,,,0.00,meteohub,2013-03-05 13:16:00,
2013-03-05 05:21:00,45.1,41.2,30.06,SW,221,1.0,2.0,86,0.00,,,0.00,meteohub,2013-03-05 13:21:00,
2013-03-05 05:26:00,45.3,41.0,30.06,SW,219,0.0,1.0,85,0.00,,,0.00,meteohub,2013-03-05 13:26:00,
2013-03-05 05:32:00,45.1,41.2,30.05,SW,219,0.0,1.0,86,0.00,,,0.00,meteohub,2013-03-05 13:32:00,
2013-03-05 05:37:00,45.1,41.2,30.05,SW,219,0.0,1.0,86,0.00,,,0.00,meteohub,2013-03-05 13:37:00,
2013-03-05 05:42:00,45.0,41.0,30.05,West,265,0.0,1.0,86,0.00,,,0.00,meteohub,2013-03-05 13:42:00,
2013-03-05 05:47:00,45.0,41.0,30.05,West,265,0.0,1.0,86,0.00,,,0.00,meteohub,2013-03-05 13:47:00,
2013-03-05 05:52:00,45.0,41.0,30.05,West,265,0.0,1.0,86,0.00,,,0.00,meteohub,2013-03-05 13:52:00,
2013-03-05 05:57:00,45.0,41.0,30.05,West,265,0.0,0.0,86,0.00,,,0.00,meteohub,2013-03-05 13:57:00,
2013-03-05 06:02:00,45.0,41.0,30.05,West,265,0.0,0.0,86,0.00,,,0.00,meteohub,2013-03-05 14:02:00,
2013-03-05 06:07:00,45.0,41.0,30.05,West,265,0.0,0.0,86,0.00,,,0.00,meteohub,2013-03-05 14:07:00,
2013-03-05 06:12:00,44.8,40.8,30.05,West,266,0.0,1.0,86,0.00,,,0.00,meteohub,2013-03-05 14:12:00,
2013-03-05 06:17:00,44.6,40.6,30.05,West,265,0.0,1.0,86,0.00,,,0.00,meteohub,2013-03-05 14:17:00,
2013-03-05 06:22:00,44.4,40.8,30.05,West,278,1.0,1.0,87,0.00,,,0.00,meteohub,2013-03-05 14:22:00,
2013-03-05 06:27:00,44.2,40.6,30.06,North,354,0.0,1.0,87,0.00,,,0.00,meteohub,2013-03-05 14:27:00,
2013-03-05 06:32:00,44.1,40.8,30.06,North,356,1.0,1.0,88,0.00,,,0.00,meteohub,2013-03-05 14:32:00,
2013-03-05 06:37:00,44.1,40.8,30.06,North,356,0.0,1.0,88,0.00,,,0.00,meteohub,2013-03-05 14:37:00,
2013-03-05 06:42:00,44.2,41.0,30.06,North,356,0.0,1.0,88,0.00,,,0.00,meteohub,2013-03-05 14:42:00,
2013-03-05 06:47:00,44.2,41.0,30.06,North,356,0.0,1.0,88,0.00,,,0.00,meteohub,2013-03-05 14:47:00,
2013-03-05 06:52:00,44.4,41.2,30.06,North,356,0.0,1.0,88,0.00,,,0.00,meteohub,2013-03-05 14:52:00,
2013-03-05 06:57:00,44.4,41.2,30.06,North,356,0.0,1.0,88,0.00,,,0.00,meteohub,2013-03-05 14:57:00,
2013-03-05 07:02:00,44.8,41.2,30.06,SW,214,1.0,1.0,87,0.00,,,0.00,meteohub,2013-03-05 15:02:00,
2013-03-05 07:07:00,45.3,41.0,30.06,SSE,162,0.0,3.0,85,0.00,,,0.00,meteohub,2013-03-05 15:07:00,
2013-03-05 07:12:00,45.9,41.4,30.06,SW,217,0.0,3.0,84,0.00,,,0.00,meteohub,2013-03-05 15:12:00,
2013-03-05 07:17:00,46.4,41.5,30.06,South,191,0.0,3.0,83,0.00,,,0.00,meteohub,2013-03-05 15:17:00,
2013-03-05 07:22:00,46.9,41.7,30.05,SSW,205,0.0,4.0,82,0.00,,,0.00,meteohub,2013-03-05 15:22:00,
2013-03-05 07:27:00,47.1,41.5,30.05,SSW,198,1.0,4.0,81,0.00,,,0.00,meteohub,2013-03-05 15:27:00,
2013-03-05 07:32:00,47.5,41.5,30.06,WSW,248,1.0,4.0,80,0.00,,,0.00,meteohub,2013-03-05 15:32:00,
2013-03-05 07:37:00,47.5,41.5,30.05,WNW,298,0.0,3.0,80,0.00,,,0.00,meteohub,2013-03-05 15:37:00,
2013-03-05 07:42:00,47.5,41.4,30.05,WNW,300,1.0,4.0,79,0.00,,,0.00,meteohub,2013-03-05 15:42:00,
2013-03-05 07:47:00,47.5,41.4,30.05,North,4,2.0,5.0,79,0.00,,,0.00,meteohub,2013-03-05 15:47:00,
2013-03-05 07:52:00,47.7,41.5,30.05,SSE,150,0.0,5.0,79,0.00,,,0.00,meteohub,2013-03-05 15:52:00,
2013-03-05 07:57:00,48.0,41.5,30.05,WSW,256,1.0,5.0,78,0.00,,,0.00,meteohub,2013-03-05 15:57:00,
2013-03-05 08:02:00,48.2,41.4,30.05,NNW,334,2.0,5.0,77,0.00,,,0.00,meteohub,2013-03-05 16:02:00,
2013-03-05 08:07:00,48.4,41.9,30.05,North,11,2.0,5.0,78,0.00,,,0.00,meteohub,2013-03-05 16:07:00,
2013-03-05 08:12:00,48.4,41.5,30.05,NNE,16,4.0,6.0,77,0.00,,,0.00,meteohub,2013-03-05 16:12:00,
2013-03-05 08:17:00,48.4,41.5,30.05,NNW,338,2.0,7.0,77,0.00,,,0.00,meteohub,2013-03-05 16:17:00,
2013-03-05 08:22:00,48.6,41.7,30.05,NNE,20,4.0,7.0,77,0.00,,,0.00,meteohub,2013-03-05 16:22:00,
2013-03-05 08:27:00,48.7,41.9,30.05,North,352,1.0,7.0,77,0.00,,,0.00,meteohub,2013-03-05 16:27:00,
2013-03-05 08:32:00,48.7,41.5,30.05,North,352,2.0,7.0,76,0.00,,,0.00,meteohub,2013-03-05 16:32:00,
2013-03-05 08:37:00,49.3,41.7,30.05,North,359,2.0,5.0,75,0.00,,,0.00,meteohub,2013-03-05 16:37:00,
2013-03-05 08:42:00,49.5,42.3,30.05,NE,47,0.0,5.0,76,0.00,,,0.00,meteohub,2013-03-05 16:42:00,
2013-03-05 08:47:00,49.8,41.9,30.05,NNE,20,1.0,4.0,74,0.00,,,0.00,meteohub,2013-03-05 16:47:00,
2013-03-05 08:52:00,49.8,41.2,30.05,NNW,342,1.0,4.0,72,0.00,,,0.00,meteohub,2013-03-05 16:52:00,
2013-03-05 08:57:00,50.4,41.7,30.05,NNW,348,1.0,4.0,72,0.00,,,0.00,meteohub,2013-03-05 16:57:00,
2013-03-05 09:02:00,50.4,41.7,30.05,South,181,2.0,4.0,72,0.00,,,0.00,meteohub,2013-03-05 17:02:00,
2013-03-05 09:07:00,50.9,41.5,30.05,NE,53,3.0,5.0,70,0.00,,,0.00,meteohub,2013-03-05 17:07:00,
2013-03-05 09:12:00,51.3,41.4,30.04,NE,46,6.0,6.0,69,0.00,,,0.00,meteohub,2013-03-05 17:12:00,
2013-03-05 09:17:00,50.9,41.2,30.04,NNE,13,7.0,7.0,69,0.00,,,0.00,meteohub,2013-03-05 17:17:00,
2013-03-05 09:22:00,51.1,41.2,30.04,NNE,15,2.0,9.0,69,0.00,,,0.00,meteohub,2013-03-05 17:22:00,
2013-03-05 09:27:00,51.1,41.2,30.04,SW,227,3.0,10.0,69,0.00,,,0.00,meteohub,2013-03-05 17:27:00,
2013-03-05 09:32:00,51.4,41.2,30.04,NNW,333,3.0,10.0,68,0.00,,,0.00,meteohub,2013-03-05 17:32:00,
2013-03-05 09:37:00,52.0,41.4,30.04,NNW,338,2.0,10.0,67,0.00,,,0.00,meteohub,2013-03-05 17:37:00,
2013-03-05 09:42:00,52.0,41.7,30.04,ENE,63,3.0,8.0,68,0.00,,,0.00,meteohub,2013-03-05 17:42:00,
2013-03-05 09:47:00,52.0,42.1,30.04,NNW,340,2.0,11.0,69,0.00,,,0.00,meteohub,2013-03-05 17:47:00,
2013-03-05 09:52:00,52.2,41.5,30.04,ENE,64,2.0,12.0,67,0.00,,,0.00,meteohub,2013-03-05 17:52:00,
2013-03-05 09:57:00,52.5,41.9,30.04,WSW,240,2.0,12.0,67,0.00,,,0.00,meteohub,2013-03-05 17:57:00,
2013-03-05 10:02:00,52.9,42.3,30.03,WNW,302,4.0,8.0,67,0.00,,,0.00,meteohub,2013-03-05 18:02:00,
2013-03-05 10:07:00,53.2,42.3,30.03,North,9,2.0,7.0,66,0.00,,,0.00,meteohub,2013-03-05 18:07:00,
2013-03-05 10:12:00,53.2,41.7,30.04,SW,225,3.0,8.0,65,0.00,,,0.00,meteohub,2013-03-05 18:12:00,
2013-03-05 10:17:00,53.4,42.3,30.04,East,86,1.0,8.0,66,0.00,,,0.00,meteohub,2013-03-05 18:17:00,
2013-03-05 10:22:00,54.0,42.8,30.04,NE,34,1.0,8.0,66,0.00,,,0.00,meteohub,2013-03-05 18:22:00,
2013-03-05 10:27:00,54.0,42.4,30.04,ENE,72,2.0,9.0,65,0.00,,,0.00,meteohub,2013-03-05 18:27:00,
2013-03-05 10:33:00,54.0,42.8,30.04,WNW,293,4.0,9.0,66,0.00,,,0.00,meteohub,2013-03-05 18:33:00,
2013-03-05 10:38:00,54.0,42.8,30.04,North,355,5.0,9.0,66,0.00,,,0.00,meteohub,2013-03-05 18:38:00,
2013-03-05 10:43:00,53.6,42.4,30.04,North,0,5.0,12.0,66,0.00,,,0.00,meteohub,2013-03-05 18:43:00,
2013-03-05 10:48:00,53.2,42.6,30.04,NE,41,9.0,16.0,67,0.00,,,0.00,meteohub,2013-03-05 18:48:00,
2013-03-05 10:53:00,52.9,42.6,30.04,NW,304,6.0,16.0,68,0.00,,,0.00,meteohub,2013-03-05 18:53:00,
2013-03-05 10:58:00,52.9,42.6,30.03,North,358,8.0,16.0,68,0.00,,,0.00,meteohub,2013-03-05 18:58:00,
2013-03-05 11:04:00,52.9,43.0,30.04,WNW,298,4.0,16.0,69,0.00,,,0.00,meteohub,2013-03-05 19:04:00,
2013-03-05 11:09:00,52.5,42.6,30.04,SSW,204,6.0,16.0,69,0.00,,,0.00,meteohub,2013-03-05 19:09:00,
2013-03-05 11:14:00,52.9,43.0,30.03,SSW,205,4.0,16.0,69,0.00,,,0.00,meteohub,2013-03-05 19:14:00,
2013-03-05 11:19:00,53.2,43.3,30.03,SSE,159,1.0,15.0,69,0.00,,,0.00,meteohub,2013-03-05 19:19:00,
2013-03-05 11:24:00,53.2,43.0,30.03,NE,34,4.0,13.0,68,0.00,,,0.00,meteohub,2013-03-05 19:24:00,
2013-03-05 11:29:00,53.2,43.0,30.03,NE,52,2.0,13.0,68,0.00,,,0.00,meteohub,2013-03-05 19:29:00,
2013-03-05 11:34:00,53.2,43.0,30.03,SW,231,9.0,13.0,68,0.00,,,0.00,meteohub,2013-03-05 19:34:00,
2013-03-05 11:39:00,53.6,43.3,30.02,NNW,338,4.0,13.0,68,0.00,,,0.00,meteohub,2013-03-05 19:39:00,
2013-03-05 11:45:00,54.0,43.7,30.02,NE,43,10.0,12.0,68,0.00,,,0.00,meteohub,2013-03-05 19:45:00,
2013-03-05 11:50:00,54.3,43.2,30.02,NW,306,4.0,13.0,66,0.00,,,0.00,meteohub,2013-03-05 19:50:00,
2013-03-05 11:55:00,54.3,43.5,30.02,SSW,201,8.0,16.0,67,0.00,,,0.00,meteohub,2013-03-05 19:55:00,
2013-03-05 12:00:00,54.1,43.3,30.02,North,349,4.0,16.0,67,0.00,,,0.00,meteohub,2013-03-05 20:00:00,
2013-03-05 12:05:00,54.3,43.2,30.02,WSW,243,9.0,16.0,66,0.00,,,0.00,meteohub,2013-03-05 20:05:00,
2013-03-05 12:10:00,54.3,43.2,30.02,South,191,2.0,10.0,66,0.00,,,0.00,meteohub,2013-03-05 20:10:00,
2013-03-05 12:15:00,54.3,42.8,30.01,NNE,20,6.0,10.0,65,0.00,,,0.00,meteohub,2013-03-05 20:15:00,
2013-03-05 12:20:00,54.7,43.2,30.01,SE,145,5.0,15.0,65,0.00,,,0.00,meteohub,2013-03-05 20:20:00,
2013-03-05 12:25:00,55.0,43.2,30.01,NNW,348,6.0,15.0,64,0.00,,,0.00,meteohub,2013-03-05 20:25:00,
2013-03-05 12:31:00,55.6,43.2,30.01,ESE,112,3.0,15.0,63,0.00,,,0.00,meteohub,2013-03-05 20:31:00,
2013-03-05 12:36:00,55.6,43.2,30.01,South,186,4.0,15.0,63,0.00,,,0.00,meteohub,2013-03-05 20:36:00,
2013-03-05 12:41:00,55.0,43.2,30.01,West,270,4.0,12.0,64,0.00,,,0.00,meteohub,2013-03-05 20:41:00,
2013-03-05 12:46:00,54.5,42.6,30.00,East,79,5.0,11.0,64,0.00,,,0.00,meteohub,2013-03-05 20:46:00,
2013-03-05 12:51:00,54.3,42.4,30.00,South,181,3.0,12.0,64,0.00,,,0.00,meteohub,2013-03-05 20:51:00,
2013-03-05 12:56:00,54.3,42.4,30.00,NE,53,3.0,12.0,64,0.00,,,0.00,meteohub,2013-03-05 20:56:00,
2013-03-05 13:01:00,54.5,42.6,30.00,NNW,328,4.0,15.0,64,0.00,,,0.00,meteohub,2013-03-05 21:01:00,
2013-03-05 13:07:00,54.9,43.0,30.00,WNW,285,7.0,16.0,64,0.00,,,0.00,meteohub,2013-03-05 21:07:00,
2013-03-05 13:12:00,54.7,42.8,29.99,NW,321,2.0,16.0,64,0.00,,,0.00,meteohub,2013-03-05 21:12:00,
2013-03-05 13:17:00,54.5,42.6,29.99,ENE,75,3.0,16.0,64,0.00,,,0.00,meteohub,2013-03-05 21:17:00,
2013-03-05 13:22:00,54.3,42.4,29.99,WNW,294,3.0,12.0,64,0.00,,,0.00,meteohub,2013-03-05 21:22:00,
2013-03-05 13:27:00,54.1,42.3,29.99,ESE,122,1.0,12.0,64,0.00,,,0.00,meteohub,2013-03-05 21:27:00,
2013-03-05 13:32:00,54.1,42.6,29.99,SW,214,7.0,12.0,65,0.00,,,0.00,meteohub,2013-03-05 21:32:00,
2013-03-05 13:37:00,54.1,42.6,29.98,North,354,3.0,12.0,65,0.00,,,0.00,meteohub,2013-03-05 21:37:00,
2013-03-05 13:42:00,54.1,42.6,29.98,ESE,107,2.0,12.0,65,0.00,,,0.00,meteohub,2013-03-05 21:42:00,
2013-03-05 13:47:00,54.3,42.8,29.97,WNW,300,2.0,12.0,65,0.00,,,0.00,meteohub,2013-03-05 21:47:00,
2013-03-05 13:52:00,54.7,43.2,29.97,WNW,290,5.0,12.0,65,0.00,,,0.00,meteohub,2013-03-05 21:52:00,
2013-03-05 13:58:00,54.7,43.2,29.97,WNW,291,1.0,9.0,65,0.00,,,0.00,meteohub,2013-03-05 21:58:00,
2013-03-05 14:03:00,54.9,43.3,29.97,SSW,200,2.0,10.0,65,0.00,,,0.00,meteohub,2013-03-05 22:03:00,
2013-03-05 14:08:00,54.7,43.2,29.97,East,96,3.0,10.0,65,0.00,,,0.00,meteohub,2013-03-05 22:08:00,
2013-03-05 14:13:00,54.1,42.6,29.96,SE,126,3.0,10.0,65,0.00,,,0.00,meteohub,2013-03-05 22:13:00,
2013-03-05 14:18:00,54.1,42.6,29.96,NNE,22,8.0,11.0,65,0.00,,,0.00,meteohub,2013-03-05 22:18:00,
2013-03-05 14:23:00,54.3,42.8,29.96,SE,142,2.0,11.0,65,0.00,,,0.00,meteohub,2013-03-05 22:23:00,
2013-03-05 14:28:00,54.3,42.8,29.96,SE,136,2.0,11.0,65,0.00,,,0.00,meteohub,2013-03-05 22:28:00,
2013-03-05 14:33:00,54.3,42.8,29.96,SSE,157,3.0,11.0,65,0.00,,,0.00,meteohub,2013-03-05 22:33:00,
2013-03-05 14:39:00,54.7,43.2,29.95,SSW,211,1.0,11.0,65,0.00,,,0.00,meteohub,2013-03-05 22:39:00,
2013-03-05 14:44:00,54.9,43.0,29.95,ESE,117,5.0,11.0,64,0.00,,,0.00,meteohub,2013-03-05 22:44:00,
2013-03-05 14:49:00,55.0,43.2,29.95,South,176,5.0,9.0,64,0.00,,,0.00,meteohub,2013-03-05 22:49:00,
2013-03-05 14:54:00,55.6,43.5,29.95,ENE,68,1.0,9.0,64,0.00,,,0.00,meteohub,2013-03-05 22:54:00,
2013-03-05 14:59:00,55.9,43.5,29.95,SW,232,2.0,9.0,63,0.00,,,0.00,meteohub,2013-03-05 22:59:00,
2013-03-05 15:04:00,55.9,43.5,29.95,ESE,107,3.0,10.0,63,0.00,,,0.00,meteohub,2013-03-05 23:04:00,
2013-03-05 15:09:00,55.9,43.5,29.95,SSE,160,1.0,10.0,63,0.00,,,0.00,meteohub,2013-03-05 23:09:00,
2013-03-05 15:15:00,56.5,43.7,29.95,NNW,341,2.0,11.0,62,0.00,,,0.00,meteohub,2013-03-05 23:15:00,
2013-03-05 15:20:00,56.7,43.7,29.94,NNW,342,1.0,10.0,62,0.00,,,0.00,meteohub,2013-03-05 23:20:00,
2013-03-05 15:25:00,56.7,43.7,29.94,NNW,332,1.0,9.0,62,0.00,,,0.00,meteohub,2013-03-05 23:25:00,
2013-03-05 15:30:00,57.0,44.1,29.94,SW,225,4.0,9.0,62,0.00,,,0.00,meteohub,2013-03-05 23:30:00,
2013-03-05 15:35:00,57.0,43.7,29.94,South,183,3.0,7.0,61,0.00,,,0.00,meteohub,2013-03-05 23:35:00,
2013-03-05 15:40:00,57.0,43.7,29.93,SSW,198,6.0,10.0,61,0.00,,,0.00,meteohub,2013-03-05 23:40:00,
2013-03-05 15:45:00,57.2,43.9,29.93,ESE,105,0.0,10.0,61,0.00,,,0.00,meteohub,2013-03-05 23:45:00,
2013-03-05 15:51:00,57.2,43.9,29.93,ESE,102,1.0,10.0,61,0.00,,,0.00,meteohub,2013-03-05 23:51:00,
2013-03-05 15:56:00,57.0,43.3,29.93,SE,146,4.0,9.0,60,0.00,,,0.00,meteohub,2013-03-05 23:56:00,
2013-03-05 16:01:00,56.5,43.7,29.92,SSE,164,8.0,13.0,62,0.00,,,0.00,meteohub,2013-03-06 00:01:00,
2013-03-05 16:06:00,56.7,43.7,29.92,NNE,25,2.0,13.0,62,0.00,,,0.00,meteohub,2013-03-06 00:06:00,
2013-03-05 16:11:00,57.4,44.1,29.92,SSE,160,3.0,13.0,61,0.00,,,0.00,meteohub,2013-03-06 00:11:00,
2013-03-05 16:16:00,57.4,44.1,29.92,SE,134,2.0,13.0,61,0.00,,,0.00,meteohub,2013-03-06 00:16:00,
2013-03-05 16:21:00,57.2,43.9,29.91,SSW,194,7.0,8.0,61,0.00,,,0.00,meteohub,2013-03-06 00:21:00,
2013-03-05 16:27:00,56.8,43.5,29.91,NE,40,1.0,11.0,61,0.00,,,0.00,meteohub,2013-03-06 00:27:00,
2013-03-05 16:32:00,57.0,43.7,29.91,SW,220,6.0,11.0,61,0.00,,,0.00,meteohub,2013-03-06 00:32:00,
2013-03-05 16:37:00,57.0,43.7,29.90,WSW,239,2.0,11.0,61,0.00,,,0.00,meteohub,2013-03-06 00:37:00,
2013-03-05 16:42:00,57.0,43.7,29.90,ESE,107,2.0,8.0,61,0.00,,,0.00,meteohub,2013-03-06 00:42:00,
2013-03-05 16:47:00,57.0,43.7,29.90,ESE,107,1.0,8.0,61,0.00,,,0.00,meteohub,2013-03-06 00:47:00,
2013-03-05 16:52:00,57.4,44.1,29.90,SSE,153,5.0,11.0,61,0.00,,,0.00,meteohub,2013-03-06 00:52:00,
2013-03-05 16:57:00,56.8,43.5,29.90,ESE,103,2.0,11.0,61,0.00,,,0.00,meteohub,2013-03-06 00:57:00,
2013-03-05 17:02:00,56.1,43.3,29.90,SSE,160,11.0,11.0,62,0.00,,,0.00,meteohub,2013-03-06 01:02:00,
2013-03-05 17:08:00,55.8,43.3,29.89,NW,320,3.0,13.0,63,0.00,,,0.00,meteohub,2013-03-06 01:08:00,
2013-03-05 17:13:00,55.6,43.2,29.89,SSE,153,8.0,13.0,63,0.00,,,0.00,meteohub,2013-03-06 01:13:00,
2013-03-05 17:18:00,55.0,43.2,29.89,SSW,198,2.0,13.0,64,0.00,,,0.00,meteohub,2013-03-06 01:18:00,
2013-03-05 17:23:00,54.7,43.2,29.89,SW,215,1.0,14.0,65,0.00,,,0.00,meteohub,2013-03-06 01:23:00,
2013-03-05 17:28:00,54.7,43.2,29.89,SE,129,2.0,14.0,65,0.00,,,0.00,meteohub,2013-03-06 01:28:00,
2013-03-05 17:33:00,54.3,43.2,29.89,SSW,203,1.0,14.0,66,0.00,,,0.00,meteohub,2013-03-06 01:33:00,
2013-03-05 17:38:00,54.1,43.0,29.88,SE,132,2.0,13.0,66,0.00,,,0.00,meteohub,2013-03-06 01:38:00,
2013-03-05 17:43:00,54.1,43.0,29.88,South,173,1.0,13.0,66,0.00,,,0.00,meteohub,2013-03-06 01:43:00,
2013-03-05 17:48:00,54.0,42.8,29.88,SW,214,2.0,13.0,66,0.00,,,0.00,meteohub,2013-03-06 01:48:00,
2013-03-05 17:54:00,54.0,42.8,29.88,SW,218,1.0,14.0,66,0.00,,,0.00,meteohub,2013-03-06 01:54:00,
2013-03-05 17:59:00,54.0,42.8,29.88,WSW,240,1.0,15.0,66,0.00,,,0.00,meteohub,2013-03-06 01:59:00,
2013-03-05 18:04:00,54.0,42.8,29.88,NW,318,2.0,15.0,66,0.00,,,0.00,meteohub,2013-03-06 02:04:00,
2013-03-05 18:09:00,53.8,43.2,29.88,SSE,159,4.0,15.0,67,0.00,,,0.00,meteohub,2013-03-06 02:09:00,
2013-03-05 18:14:00,53.8,43.2,29.88,WSW,258,4.0,12.0,67,0.00,,,0.00,meteohub,2013-03-06 02:14:00,
2013-03-05 18:19:00,53.6,43.0,29.88,WSW,238,4.0,12.0,67,0.00,,,0.00,meteohub,2013-03-06 02:19:00,
2013-03-05 18:24:00,53.4,42.8,29.88,NW,319,2.0,11.0,67,0.00,,,0.00,meteohub,2013-03-06 02:24:00,
2013-03-05 18:29:00,53.4,43.2,29.88,WNW,282,1.0,11.0,68,0.00,,,0.00,meteohub,2013-03-06 02:29:00,
2013-03-05 18:34:00,53.4,43.2,29.88,WSW,238,4.0,11.0,68,0.00,,,0.00,meteohub,2013-03-06 02:34:00,
2013-03-05 18:40:00,53.4,43.2,29.88,SSW,210,3.0,11.0,68,0.00,,,0.00,meteohub,2013-03-06 02:40:00,
2013-03-05 18:45:00,53.2,43.0,29.88,SE,136,3.0,11.0,68,0.00,,,0.00,meteohub,2013-03-06 02:45:00,
2013-03-05 18:50:00,53.2,43.3,29.88,SSE,150,12.0,12.0,69,0.00,,,0.00,meteohub,2013-03-06 02:50:00,
2013-03-05 18:55:00,53.1,43.2,29.88,SSW,201,4.0,12.0,69,0.00,,,0.00,meteohub,2013-03-06 02:55:00,
2013-03-05 19:00:00,53.1,43.2,29.88,SSE,162,5.0,12.0,69,0.00,,,0.00,meteohub,2013-03-06 03:00:00,
2013-03-05 19:05:00,53.1,43.2,29.87,SW,214,6.0,12.0,69,0.00,,,0.00,meteohub,2013-03-06 03:05:00,
2013-03-05 19:10:00,53.1,43.5,29.87,West,259,8.0,12.0,70,0.00,,,0.00,meteohub,2013-03-06 03:10:00,
2013-03-05 19:15:00,53.1,43.2,29.87,SSE,148,5.0,16.0,69,0.00,,,0.00,meteohub,2013-03-06 03:15:00,
2013-03-05 19:21:00,53.2,43.3,29.86,South,172,5.0,19.0,69,0.00,,,0.00,meteohub,2013-03-06 03:21:00,
2013-03-05 19:26:00,53.2,43.3,29.86,SW,235,6.0,19.0,69,0.00,,,0.00,meteohub,2013-03-06 03:26:00,
2013-03-05 19:31:00,53.2,43.3,29.86,ESE,114,8.0,19.0,69,0.00,,,0.00,meteohub,2013-03-06 03:31:00,
2013-03-05 19:36:00,53.2,43.7,29.85,WSW,238,7.0,16.0,70,0.00,,,0.00,meteohub,2013-03-06 03:36:00,
2013-03-05 19:41:00,53.2,43.3,29.85,ESE,118,3.0,14.0,69,0.00,,,0.00,meteohub,2013-03-06 03:41:00,
2013-03-05 19:46:00,53.2,43.3,29.85,South,184,3.0,12.0,69,0.00,,,0.00,meteohub,2013-03-06 03:46:00,
2013-03-05 19:51:00,53.2,43.7,29.84,SSE,167,5.0,13.0,70,0.00,,,0.00,meteohub,2013-03-06 03:51:00,
2013-03-05 19:56:00,53.2,43.7,29.84,South,184,6.0,13.0,70,0.00,,,0.00,meteohub,2013-03-06 03:56:00,
2013-03-05 20:01:00,53.2,43.7,29.85,South,169,5.0,13.0,70,0.00,,,0.00,meteohub,2013-03-06 04:01:00,
2013-03-05 20:06:00,53.2,43.7,29.85,SSW,195,3.0,14.0,70,0.00,,,0.00,meteohub,2013-03-06 04:06:00,
2013-03-05 20:12:00,53.2,43.7,29.85,SSE,162,3.0,16.0,70,0.00,,,0.00,meteohub,2013-03-06 04:12:00,
2013-03-05 20:17:00,53.2,43.7,29.85,South,173,7.0,16.0,70,0.00,,,0.00,meteohub,2013-03-06 04:17:00,
2013-03-05 20:22:00,53.2,43.7,29.85,South,181,8.0,18.0,70,0.00,,,0.00,meteohub,2013-03-06 04:22:00,
2013-03-05 20:27:00,53.2,44.1,29.85,SW,222,4.0,18.0,71,0.00,,,0.00,meteohub,2013-03-06 04:27:00,
2013-03-05 20:32:00,53.1,44.2,29.85,SSE,150,7.0,17.0,72,0.00,,,0.00,meteohub,2013-03-06 04:32:00,
2013-03-05 20:37:00,52.5,44.4,29.85,SW,235,4.0,17.0,74,0.00,,,0.00,meteohub,2013-03-06 04:37:00,
2013-03-05 20:42:00,52.3,45.0,29.85,SSW,201,4.0,13.0,76,0.00,,,0.00,meteohub,2013-03-06 04:42:00,
2013-03-05 20:47:00,52.2,45.1,29.85,South,173,5.0,13.0,77,0.01,,,0.01,meteohub,2013-03-06 04:47:00,
2013-03-05 20:52:00,52.0,45.3,29.85,South,180,2.0,16.0,78,0.02,,,0.02,meteohub,2013-03-06 04:52:00,
2013-03-05 20:57:00,51.8,45.5,29.85,South,180,7.0,19.0,79,0.02,,,0.02,meteohub,2013-03-06 04:57:00,
2013-03-05 21:00:00,51.6,45.3,29.84,SSE,156,9.0,19.0,79,0.02,,,0.03,meteohub,2013-03-06 05:00:00,
2013-03-05 21:01:00,51.6,45.3,29.85,SSE,158,4.0,19.0,79,0.03,,,0.03,meteohub,2013-03-06 05:01:00,
2013-03-05 21:02:00,51.6,45.3,29.84,SSW,204,3.0,19.0,79,0.03,,,0.03,meteohub,2013-03-06 05:02:00,
2013-03-05 21:07:00,51.6,46.0,29.84,SW,222,2.0,19.0,81,0.03,,,0.03,meteohub,2013-03-06 05:07:00,
2013-03-05 21:12:00,51.4,45.9,29.85,SSE,158,0.0,11.0,81,0.03,,,0.03,meteohub,2013-03-06 05:12:00,
2013-03-05 21:17:00,51.3,45.7,29.85,SSE,167,5.0,11.0,81,0.04,,,0.04,meteohub,2013-03-06 05:17:00,
2013-03-05 21:22:00,51.3,46.0,29.85,SSE,167,4.0,10.0,82,0.04,,,0.04,meteohub,2013-03-06 05:22:00,
2013-03-05 21:27:00,51.3,46.0,29.85,SW,224,3.0,13.0,82,0.04,,,0.04,meteohub,2013-03-06 05:27:00,
2013-03-05 21:32:00,51.3,46.2,29.85,SSE,153,8.0,13.0,83,0.05,,,0.05,meteohub,2013-03-06 05:32:00,
2013-03-05 21:37:00,51.1,46.0,29.85,SSW,207,5.0,13.0,83,0.05,,,0.05,meteohub,2013-03-06 05:37:00,
2013-03-05 21:43:00,51.1,46.4,29.85,SSE,156,6.0,12.0,84,0.04,,,0.05,meteohub,2013-03-06 05:43:00,
2013-03-05 21:48:00,51.1,46.4,29.83,East,85,7.0,18.0,84,0.05,,,0.06,meteohub,2013-03-06 05:48:00,
2013-03-05 21:53:00,51.1,46.4,29.83,SW,214,4.0,18.0,84,0.04,,,0.06,meteohub,2013-03-06 05:53:00,
2013-03-05 21:58:00,51.1,46.8,29.83,South,169,7.0,18.0,85,0.04,,,0.07,meteohub,2013-03-06 05:58:00,
2013-03-05 22:03:00,50.7,46.8,29.83,WSW,245,3.0,19.0,86,0.04,,,0.07,meteohub,2013-03-06 06:03:00,
2013-03-05 22:08:00,50.7,46.4,29.84,SSW,195,6.0,19.0,85,0.04,,,0.07,meteohub,2013-03-06 06:08:00,
2013-03-05 22:13:00,50.9,46.9,29.84,SSW,193,5.0,19.0,86,0.03,,,0.07,meteohub,2013-03-06 06:13:00,
2013-03-05 22:19:00,50.7,46.8,29.85,SSE,158,4.0,15.0,86,0.03,,,0.07,meteohub,2013-03-06 06:19:00,
2013-03-05 22:24:00,50.7,46.8,29.84,SSE,165,6.0,17.0,86,0.03,,,0.07,meteohub,2013-03-06 06:24:00,
2013-03-05 22:29:00,50.7,46.8,29.84,NNE,22,3.0,17.0,86,0.03,,,0.07,meteohub,2013-03-06 06:29:00,
2013-03-05 22:34:00,50.9,46.6,29.84,South,186,10.0,17.0,85,0.02,,,0.07,meteohub,2013-03-06 06:34:00,
2013-03-05 22:39:00,51.3,46.6,29.85,NW,305,5.0,13.0,84,0.02,,,0.07,meteohub,2013-03-06 06:39:00,
2013-03-05 22:44:00,51.3,46.2,29.86,NNE,18,8.0,20.0,83,0.02,,,0.07,meteohub,2013-03-06 06:44:00,
2013-03-05 22:49:00,51.4,46.4,29.85,SW,234,7.0,20.0,83,0.01,,,0.07,meteohub,2013-03-06 06:49:00,
2013-03-05 22:54:00,51.4,46.4,29.85,South,174,1.0,18.0,83,0.01,,,0.07,meteohub,2013-03-06 06:54:00,
2013-03-05 22:59:00,51.4,46.4,29.84,South,173,4.0,15.0,83,0.00,,,0.07,meteohub,2013-03-06 06:59:00,
2013-03-05 23:05:00,51.4,46.4,29.84,WSW,246,3.0,20.0,83,0.00,,,0.07,meteohub,2013-03-06 07:05:00,
2013-03-05 23:10:00,51.4,46.4,29.85,SSE,153,9.0,20.0,83,0.00,,,0.07,meteohub,2013-03-06 07:10:00,
2013-03-05 23:15:00,51.4,46.4,29.84,SW,218,3.0,20.0,83,0.01,,,0.07,meteohub,2013-03-06 07:15:00,
2013-03-05 23:20:00,51.3,46.6,29.84,South,181,5.0,20.0,84,0.01,,,0.08,meteohub,2013-03-06 07:20:00,
2013-03-05 23:25:00,51.1,46.4,29.85,SSW,212,3.0,16.0,84,0.02,,,0.09,meteohub,2013-03-06 07:25:00,
2013-03-05 23:30:00,51.1,46.8,29.85,SE,127,6.0,16.0,85,0.02,,,0.09,meteohub,2013-03-06 07:30:00,
2013-03-05 23:35:00,51.1,46.8,29.84,WSW,249,3.0,20.0,85,0.02,,,0.09,meteohub,2013-03-06 07:35:00,
2013-03-05 23:40:00,50.9,46.9,29.84,SE,142,5.0,20.0,86,0.03,,,0.10,meteohub,2013-03-06 07:40:00,
2013-03-05 23:45:00,50.9,46.9,29.84,NW,314,8.0,19.0,86,0.03,,,0.10,meteohub,2013-03-06 07:45:00,
2013-03-05 23:51:00,50.9,46.9,29.84,SE,126,4.0,24.0,86,0.04,,,0.11,meteohub,2013-03-06 07:51:00,
2013-03-05 23:56:00,51.1,47.1,29.85,South,186,4.0,24.0,86,0.04,,,0.11,meteohub,2013-03-06 07:56:00,